User: anonymous   Login
Location: Unspecified
(0.0000°N, 0.0000°E)
Time: 07:44:21
(UTC+00:00)
Language:

STARLINK-31058 - Orbit

View from above orbital plane
View from above orbital plane
View from above satellite
View from above satellite

Ground track
Ground track

The orbit is defined by the following mean orbital elements,

1 58677U          26145.03823175 +.00000000 +00000-0 +10854-4 0 00005
2 58677  43.0040  13.8875 0001455 261.0903  98.9784 15.27593750    03
Epoch (UTC): 25 May 2026 00:55:03
Eccentricity: 0.0001455
inclination: 43.0040°
perigee height: 482 km
apogee height: 484 km
right ascension of ascending node: 13.8875°
argument of perigee: 261.0903°
revolutions per day: 15.27593750
mean anomaly at epoch: 98.9784°

The dashed part of the orbit path shows where the satellite is in the earth's shadow,  

DLR